This is the latest recevied weather packets stored in our database for station/object KB1JL-13. If no packets are shown the sender has not sent any weather packets the latest 10 day(s).
| Time | Temp. | Humidity | Pressure | Rain* | Wind** | Luminosity | Snow |
|---|---|---|---|---|---|---|---|
| 1777685046 | 11.11° C | 73% | 1023.7 hPa | 0 mm | - | 0 W/m² | - |
| 1777684743 | 11.67° C | 73% | 1023.7 hPa | 0 mm | - | 0 W/m² | - |
| 1777684439 | 11.67° C | 73% | 1024 hPa | 0 mm | - | 0 W/m² | - |
| 1777684136 | 11.67° C | 73% | 1023.7 hPa | 0 mm | - | 0 W/m² | - |
| 1777683832 | 11.67° C | 72% | 1023.7 hPa | 0 mm | - | 0 W/m² | - |
| 1777683529 | 11.67° C | 72% | 1023.7 hPa | 0 mm | - | 0 W/m² | - |
| 1777683227 | 11.67° C | 72% | 1023.7 hPa | 0 mm | - | 0 W/m² | - |
| 1777682924 | 11.67° C | 71% | 1023.7 hPa | 0 mm | - | 0 W/m² | - |
| 1777682620 | 11.67° C | 71% | 1023.4 hPa | 0 mm | - | 0 W/m² | - |
| 1777682318 | 11.67° C | 71% | 1023.4 hPa | 0 mm | - | 0 W/m² | - |
| 1777682015 | 11.67° C | 71% | 1023.4 hPa | 0 mm | - | 0 W/m² | - |
| 1777681711 | 11.67° C | 70% | 1023 hPa | 0 mm | - | 0 W/m² | - |
| 1777681408 | 11.67° C | 70% | 1022.6 hPa | 0 mm | - | 0 W/m² | - |
| 1777681106 | 11.67° C | 69% | 1023 hPa | 0 mm | - | 0 W/m² | - |
| 1777680803 | 11.67° C | 68% | 1022.6 hPa | 0 mm | - | 0 W/m² | - |
| 1777680501 | 12.22° C | 67% | 1022.6 hPa | 0 mm | - | 0 W/m² | - |
| 1777680199 | 12.22° C | 66% | 1022.6 hPa | 0 mm | - | 0 W/m² | - |
| 1777679894 | 12.78° C | 65% | 1022.6 hPa | 0 mm | - | 0 W/m² | - |
| 1777679590 | 12.78° C | 64% | 1022.6 hPa | 0 mm | - | 0 W/m² | - |
| 1777679286 | 12.78° C | 63% | 1022.2 hPa | 0 mm | - | 1 W/m² | - |
| 1777678983 | 12.78° C | 64% | 1022.2 hPa | 0 mm | - | 3 W/m² | - |
| 1777678682 | 12.78° C | 63% | 1022.6 hPa | 0 mm | - | 6 W/m² | - |
| 1777678379 | 13.33° C | 60% | 1022.2 hPa | 0 mm | - | 8 W/m² | - |
| 1777678074 | 13.89° C | 55% | 1021.9 hPa | 0 mm | - | 10 W/m² | - |
| 1777677771 | 13.89° C | 51% | 1021.6 hPa | 0 mm | - | 13 W/m² | - |
* Rain latest hour (hover to see other rain measurements)
** Current wind speed in m/s (hover to see current wind gust speed)